Theta_e
334 334 335 335 333 333 333 334 335 334 334 334 333 332 333 334 334 334 334 334 335 335 335 334 334 334 333 333 333 333 332 333 333 332 331 332 333 333 332 332 333 333 332 332 332 332 332 332 330 331 331 329 330 330 330 330 330 330 329 329 329 328 328
335 335 334 333 333 333 333 333 334 334 334 333 333 332 333 334 334 334 334 335 335 334 334 334 334 333 333 333 334 333 333 332 331 331 332 332 332 331 332 332 332 332 331 332 332 331 332 332 331 331 330 330 330 329 329 329 329 329 329 328 328 328 327
335 335 334 333 333 333 333 333 333 333 333 332 332 332 333 333 334 333 334 334 333 332 333 333 334 333 333 334 334 334 333 331 331 331 332 334 333 331 331 331 330 330 330 331 331 331 331 331 332 331 330 330 330 329 329 328 328 328 328 328 327 327 327
335 333 333 333 333 333 333 333 332 331 331 332 332 333 333 333 333 333 333 332 331 331 330 331 332 332 332 332 333 332 331 331 332 332 333 335 334 332 331 331 330 330 330 330 330 331 331 331 332 331 330 330 329 329 328 328 328 328 328 327 327 327 326
334 334 334 334 333 334 333 332 331 331 331 332 333 333 332 332 332 331 331 330 330 329 329 329 329 329 329 330 331 331 331 331 332 333 333 333 333 332 332 332 331 330 331 331 330 330 329 330 331 330 330 329 329 329 328 328 328 327 327 327 326 326 326
336 335 335 335 334 333 332 332 331 331 332 333 332 332 332 331 331 330 330 330 329 329 329 328 328 328 328 329 329 330 331 332 333 334 333 332 332 333 333 332 332 331 332 331 329 328 328 328 330 330 329 329 328 328 327 327 327 326 326 326 326 325 324
336 335 335 335 334 333 333 333 333 333 333 333 332 332 331 331 330 329 329 328 328 328 328 328 328 328 327 328 329 329 331 332 333 333 332 331 331 332 333 332 332 331 331 330 329 329 328 328 329 329 328 328 327 327 326 326 327 326 326 325 325 324 323
334 334 333 334 333 333 333 333 332 332 332 332 331 330 329 329 329 328 328 327 328 328 328 328 327 327 327 328 329 329 331 332 333 333 332 332 331 330 331 331 330 328 329 329 328 329 328 327 328 328 328 329 328 326 325 325 326 326 325 324 324 323 322
333 333 332 332 332 332 332 331 330 330 331 330 329 328 328 328 327 327 327 327 327 327 327 327 327 327 327 327 328 329 330 331 332 332 331 332 331 330 330 330 328 327 329 328 327 328 328 327 328 327 327 327 328 327 326 325 324 324 325 324 324 323 321
332 332 332 332 332 332 331 330 330 330 330 329 328 328 328 327 327 327 327 326 326 326 327 327 326 326 327 327 327 328 329 329 329 329 329 331 330 330 330 329 328 328 329 329 328 328 328 328 328 327 327 325 324 326 327 326 324 323 324 323 322 321 320
332 331 332 332 331 331 330 330 329 329 329 329 328 328 327 327 326 326 326 326 326 326 326 326 325 326 326 326 327 327 327 327 327 326 327 328 329 330 330 329 328 329 329 328 328 328 328 327 326 325 325 324 323 324 325 325 325 323 322 322 320 320 319
332 331 332 331 330 330 329 329 328 329 329 329 328 328 327 326 325 325 325 326 326 326 325 325 324 325 325 325 325 325 325 325 325 325 325 327 328 330 330 329 329 329 329 328 328 329 327 325 325 323 323 322 322 322 321 323 324 322 321 321 319 317 316
332 332 332 330 329 329 329 328 328 328 329 328 327 327 327 325 324 325 325 325 326 326 324 323 323 324 324 324 323 324 323 322 322 323 323 325 327 329 330 329 329 330 330 329 329 328 325 324 323 322 322 322 321 322 321 321 322 321 318 318 317 315 313
331 331 330 329 328 329 328 328 328 328 328 328 327 327 326 324 323 324 324 324 326 325 323 323 323 323 323 322 322 322 320 320 320 321 322 323 326 327 328 329 329 330 329 329 328 326 324 323 322 321 320 320 321 321 321 320 320 319 317 316 316 314 312
329 329 328 328 328 329 328 328 327 327 327 327 326 327 326 323 323 322 322 323 324 324 324 323 323 323 322 322 321 320 319 319 320 320 322 323 324 325 327 329 329 329 329 328 326 324 322 321 320 319 318 319 319 319 320 320 319 318 317 315 315 314 312
328 327 327 328 328 328 328 327 326 326 326 326 326 327 325 323 323 321 320 320 321 323 324 323 322 322 323 321 319 318 319 320 320 321 321 323 324 325 327 328 329 329 328 327 325 323 321 321 320 319 319 319 318 318 319 319 318 318 316 315 314 313 312
328 328 328 328 328 328 327 326 325 325 326 326 326 326 324 322 322 321 319 319 319 321 324 323 322 322 321 319 318 319 320 320 320 321 321 322 323 324 326 328 329 328 326 325 324 322 321 321 320 319 319 319 319 319 319 319 318 318 317 315 314 312 312
328 328 328 328 328 328 327 325 324 325 326 326 325 325 323 322 322 321 319 318 318 320 322 323 322 321 319 318 318 319 320 320 320 321 321 322 323 323 325 326 326 326 325 324 323 322 321 321 320 320 320 320 320 319 319 319 319 317 316 315 314 313 312
328 328 327 327 327 327 327 325 324 324 324 325 325 324 323 323 322 321 319 318 318 320 320 321 320 319 318 318 319 320 320 320 321 320 320 321 322 322 323 324 324 324 324 323 322 322 322 321 321 321 321 320 320 319 319 319 319 318 316 315 314 314 313
328 327 327 327 327 327 326 324 323 323 323 324 324 324 324 323 323 321 319 318 318 319 320 320 319 319 319 319 320 320 321 321 320 319 320 320 320 321 322 322 323 323 323 322 322 323 322 321 321 321 320 320 320 320 319 320 319 319 318 317 316 315 315
328 327 327 327 327 327 326 325 324 323 323 323 323 323 323 323 322 321 319 318 318 318 319 319 320 320 320 320 320 320 321 320 320 321 321 321 321 321 320 320 321 322 322 322 322 322 322 321 322 322 321 320 320 321 320 320 320 320 320 320 318 317 316
328 327 328 327 326 326 325 325 324 323 323 322 321 322 322 322 321 320 319 318 317 318 321 321 320 320 320 320 321 321 321 321 321 322 322 323 323 322 321 322 322 322 321 321 321 321 321 321 321 322 321 321 321 322 322 322 322 321 321 321 320 320 319
328 328 328 327 326 326 325 324 323 322 323 322 320 320 320 320 320 320 320 319 319 321 323 321 320 321 321 321 321 321 321 321 322 322 323 324 323 323 323 323 324 323 322 321 320 319 319 319 319 320 320 321 321 321 321 321 322 322 322 322 321 320 319
327 327 328 327 326 326 325 325 324 322 322 321 320 319 319 319 320 321 321 322 322 323 323 321 320 320 321 321 322 322 322 321 321 322 323 323 323 323 323 323 323 323 322 320 319 318 318 318 318 318 318 319 319 319 319 319 319 320 321 322 322 321 320
325 325 326 326 326 325 325 325 324 323 322 321 320 320 319 320 321 321 322 323 323 323 323 321 320 320 320 321 322 323 323 323 322 322 322 323 323 322 322 323 323 324 324 322 321 322 322 320 320 319 318 318 318 318 318 318 318 318 318 320 321 321 321
324 324 324 324 324 324 324 324 323 323 323 323 322 322 322 322 322 322 323 323 323 322 320 318 318 318 319 320 320 322 322 323 323 323 323 322 322 322 322 322 322 322 324 324 324 323 324 323 323 323 322 321 320 319 319 318 318 318 318 318 318 319 320
323 323 322 322 322 323 322 322 321 320 321 321 321 321 321 321 322 322 322 323 322 321 319 317 316 316 316 316 317 317 317 318 320 322 324 323 322 322 322 321 321 321 322 322 323 323 324 324 324 324 324 324 324 323 322 322 322 321 320 319 319 318 319
321 320 319 319 320 320 319 318 318 318 318 318 318 318 317 316 316 316 316 317 317 317 317 316 315 313 313 313 315 315 315 315 316 319 322 324 323 322 321 320 320 321 321 321 322 322 323 323 324 324 323 323 324 324 323 323 323 323 322 321 320 319 319
321 319 319 318 318 318 317 317 316 317 318 318 318 319 317 315 315 315 315 316 317 317 317 317 316 315 315 314 314 316 317 317 317 319 322 324 323 322 320 320 320 321 321 320 321 321 322 323 323 323 323 322 322 322 322 322 322 321 321 321 321 320 320
320 321 321 320 319 317 317 316 316 317 319 319 320 321 321 320 321 320 320 320 321 321 320 320 319 318 318 317 316 317 318 318 319 321 322 322 322 321 320 320 320 321 321 320 321 321 322 323 322 322 323 323 322 321 321 321 321 321 321 321 320 320 319
317 318 319 320 320 319 318 318 318 318 319 320 320 322 322 322 322 322 321 321 321 321 321 320 319 319 319 318 319 319 319 319 320 321 321 320 320 320 320 320 319 319 319 320 320 321 322 322 322 323 323 322 322 321 321 321 321 320 320 320 319 319 318
314 315 315 317 318 318 319 320 320 319 320 320 320 321 321 320 320 319 319 319 319 319 319 318 318 318 318 318 318 318 318 319 319 320 319 319 319 319 318 318 318 318 319 319 320 320 320 320 321 321 321 321 321 320 319 320 320 319 319 318 318 317 317
312 313 314 315 315 316 317 318 319 319 319 319 319 319 319 319 318 317 316 317 316 316 316 316 315 316 316 316 316 316 317 317 317 317 318 319 319 318 317 317 317 318 318 319 319 318 317 317 318 318 318 319 320 320 319 319 319 318 318 317 316 316 315
310 311 312 313 313 313 314 315 317 317 316 316 317 316 315 315 315 314 313 313 312 311 311 311 311 311 312 313 313 314 314 314 313 314 315 316 316 317 318 317 316 315 315 315 314 312 311 312 314 315 316 317 318 319 319 319 318 317 317 316 316 316 314
307 308 309 310 311 311 312 313 314 314 314 314 314 313 313 312 311 310 308 307 306 306 305 305 306 306 307 307 308 308 308 308 309 311 312 313 312 314 316 315 313 312 312 311 310 309 308 308 309 311 313 315 317 318 319 318 317 317 316 316 316 315 315
304 305 306 307 307 308 309 309 310 311 312 312 312 312 312 311 310 308 306 305 305 306 306 305 305 304 304 303 303 304 304 304 305 307 309 309 308 309 311 311 310 310 310 309 308 308 308 308 308 308 308 310 312 315 317 318 318 316 316 315 315 315 315
302 303 303 304 304 304 305 305 306 307 309 309 310 311 311 311 310 310 309 308 308 308 308 306 305 304 303 301 300 301 301 301 302 303 304 305 305 305 306 306 306 306 305 304 304 305 306 307 307 308 308 307 308 309 313 316 317 316 315 315 314 314 314
Wind_Speed
15 13 11 11 13 13 14 15 14 14 13 12 13 13 13 13 13 14 15 14 14 13 12 11 10 10 9 8 8 8 8 8 8 9 9 7 6 7 6 6 4 5 8 8 7 6 4 3 5 7 9 10 11 11 11 11 10 10 9 7 7 8 7
15 14 13 13 14 14 15 16 14 14 13 11 12 13 13 13 12 13 14 13 12 12 11 10 9 9 10 8 7 7 9 9 8 8 8 5 6 9 8 7 7 6 6 5 6 6 5 5 4 4 6 9 10 11 11 11 10 10 10 9 8 9 8
16 16 15 14 15 15 16 15 14 15 14 14 15 15 14 14 12 12 12 11 11 11 10 9 8 9 10 8 7 7 8 8 7 7 7 5 6 8 9 8 8 7 5 3 5 6 5 4 4 6 9 9 8 8 9 10 10 10 10 12 11 11 11
18 19 18 17 16 16 15 14 14 15 15 15 15 15 14 14 12 12 12 11 11 11 9 8 9 9 8 7 6 7 7 8 7 7 7 7 6 8 8 8 8 7 6 5 5 6 6 5 5 7 9 11 10 10 9 10 11 11 11 13 14 14 14
19 20 20 20 20 18 16 16 16 16 17 16 15 15 14 14 13 12 12 11 10 10 10 9 9 9 8 7 6 5 6 8 8 8 8 7 7 7 8 7 6 6 7 7 7 8 7 7 8 7 9 10 10 10 12 12 11 11 12 14 16 17 16
19 20 20 20 21 20 19 20 19 19 18 17 16 15 14 14 13 12 11 11 10 9 10 8 6 8 9 8 7 6 6 7 8 8 7 7 8 8 8 8 7 7 7 6 7 8 7 8 8 7 9 10 9 11 14 13 11 11 12 15 16 17 16
19 20 21 19 20 20 20 20 21 21 19 18 17 16 15 14 13 12 10 11 10 8 9 8 5 7 9 8 8 7 7 7 7 7 6 7 8 8 8 9 8 9 8 7 8 8 7 8 8 8 10 9 10 13 14 13 12 10 11 15 16 16 16
20 19 20 19 20 19 18 19 19 19 19 17 17 16 14 13 13 11 10 11 10 9 9 8 7 8 8 8 9 7 7 8 8 8 6 6 8 8 8 9 8 9 9 8 10 10 8 8 9 12 14 8 6 9 12 12 12 11 12 15 16 16 16
20 19 20 19 19 17 17 17 16 16 16 15 16 15 13 13 13 11 11 11 10 9 9 8 8 8 7 9 10 9 8 8 8 9 8 7 6 6 7 7 8 11 10 8 9 8 8 10 11 13 16 11 6 5 7 8 9 11 15 16 16 16 16
19 19 19 17 15 16 17 16 16 16 15 15 16 14 12 12 12 11 11 10 9 10 10 9 9 9 8 9 10 10 9 8 9 9 8 8 7 6 6 6 9 11 9 8 8 6 8 11 12 13 14 13 10 6 4 4 6 11 15 16 17 19 18
20 19 15 13 15 17 17 17 17 17 15 15 15 14 13 12 11 10 10 10 10 10 9 9 10 10 10 9 10 10 10 9 8 7 7 7 7 6 6 7 8 9 8 9 9 8 10 11 11 12 13 12 11 9 7 5 5 12 18 17 18 21 18
18 15 13 15 17 18 16 16 17 16 15 15 14 14 13 12 10 10 10 10 10 10 9 10 10 10 10 10 9 9 9 8 7 6 6 6 6 6 7 7 9 9 9 10 10 10 11 11 10 11 13 14 12 12 13 10 5 10 17 17 19 21 17
14 13 15 17 17 17 17 17 17 16 15 15 15 14 13 12 11 11 11 11 10 10 10 11 10 9 10 9 8 8 7 6 6 6 5 5 6 6 7 8 9 10 11 10 10 10 10 11 10 9 11 15 15 14 16 14 8 6 12 19 22 20 17
13 14 17 17 16 18 18 18 18 17 16 16 16 14 13 13 12 11 12 11 10 10 10 10 9 9 10 8 6 7 5 4 7 6 5 6 7 7 7 7 8 10 11 10 11 10 8 9 9 8 9 12 16 18 17 16 13 11 14 19 20 19 17
12 13 16 17 17 18 19 18 18 16 16 16 15 14 14 13 11 11 11 11 11 11 10 9 9 9 8 6 7 7 4 4 7 7 5 6 7 7 7 7 9 10 11 12 12 9 7 7 8 10 9 9 14 14 13 16 17 13 14 15 17 19 18
15 14 16 17 17 17 18 17 16 15 15 16 14 13 13 12 11 11 10 10 11 10 10 10 8 8 7 7 7 5 3 6 9 6 5 7 8 7 8 8 9 11 12 12 10 8 8 6 5 8 6 7 9 3 4 18 21 16 15 13 15 20 19
18 16 16 17 16 16 16 16 16 15 15 15 14 13 12 11 10 10 10 10 10 10 10 10 8 7 8 8 7 5 5 9 8 4 5 10 10 8 9 9 9 11 12 11 7 7 7 4 2 7 5 3 4 5 6 14 18 17 17 14 14 19 19
20 17 16 16 17 16 15 15 15 15 15 16 14 13 12 10 10 10 9 9 9 9 10 9 8 8 8 8 8 7 8 8 5 4 8 11 11 9 9 10 10 10 10 9 7 7 6 3 1 7 5 3 4 1 2 4 7 14 20 18 15 16 19
21 17 15 17 18 17 15 15 14 14 15 16 15 14 12 10 9 9 9 9 9 9 10 9 9 9 9 9 9 9 9 7 5 7 9 9 9 9 9 10 11 9 7 7 6 4 4 4 2 4 4 4 5 6 5 3 2 7 15 18 15 13 18
19 17 17 18 18 16 15 14 13 13 13 14 14 13 12 11 9 9 8 9 9 9 10 10 9 10 10 10 9 9 9 7 7 7 6 7 7 7 8 9 9 8 6 7 6 2 3 4 1 1 1 0 1 6 7 5 4 3 6 12 15 14 16
17 17 19 18 17 16 15 14 13 13 13 13 12 11 12 11 10 8 8 8 10 10 9 9 10 10 10 9 9 9 8 7 7 6 5 7 7 6 7 7 7 7 7 7 6 4 5 4 2 2 0 2 2 3 4 5 5 5 6 6 10 13 14
19 19 19 17 16 15 14 13 14 13 12 13 12 10 11 11 9 8 8 9 11 10 9 9 9 9 10 10 8 8 7 6 6 5 4 5 5 4 6 6 5 5 5 6 5 4 4 4 2 2 1 1 1 3 2 2 1 3 5 6 5 6 7
17 18 18 16 15 15 14 12 13 14 13 13 11 10 12 12 9 9 9 10 12 12 10 10 9 9 11 11 8 7 7 5 5 4 3 3 4 3 3 5 5 4 3 4 4 4 4 4 3 2 1 2 2 1 2 3 5 5 5 6 7 7 7
16 16 16 16 16 16 14 12 13 15 15 13 11 11 13 12 10 9 9 10 11 10 9 8 8 9 11 11 8 6 5 3 4 4 3 3 4 4 3 3 4 5 5 5 4 4 5 5 5 5 4 4 4 4 5 6 6 6 6 5 5 6 8
15 14 14 16 18 18 17 17 18 18 17 14 12 12 13 13 12 11 11 10 8 7 6 4 5 7 8 8 7 5 4 2 1 2 3 2 2 5 5 3 4 5 4 5 5 4 4 4 3 4 4 5 6 6 7 8 9 9 8 6 5 6 8
16 14 12 15 18 19 19 19 19 18 17 15 14 15 15 15 14 13 14 12 9 7 5 3 3 4 5 5 3 2 1 3 5 4 3 3 4 7 7 6 9 10 8 6 6 6 5 5 4 4 4 5 6 7 8 9 10 11 12 12 11 11 10
15 13 11 12 16 17 19 19 18 17 15 13 13 13 14 14 13 12 12 11 9 8 6 4 3 2 2 2 2 4 5 6 6 7 7 5 5 6 7 6 7 7 10 14 11 7 6 7 6 6 5 5 6 7 8 9 10 11 12 14 16 16 13
13 12 12 12 13 14 17 18 17 16 15 12 11 10 11 12 11 10 8 7 6 6 5 4 3 1 2 4 5 6 7 8 8 8 9 8 7 7 8 8 6 4 8 13 14 11 7 6 6 7 6 6 7 8 9 11 12 13 13 14 15 16 15
14 14 14 13 11 11 13 15 15 14 13 11 9 9 9 10 10 8 5 4 5 5 4 3 2 2 3 5 7 8 8 8 9 8 7 7 9 10 10 11 9 7 8 9 11 13 10 6 8 9 8 8 10 10 12 14 15 16 16 16 15 16 16
17 15 15 15 13 12 12 12 12 11 9 7 8 9 11 12 11 9 7 5 5 5 4 2 1 2 4 6 7 9 9 8 6 6 6 7 8 9 9 9 11 11 11 10 11 12 9 8 10 10 8 8 10 11 13 16 17 17 16 16 16 16 16
21 18 17 16 15 13 11 11 10 8 6 7 9 11 12 13 12 9 7 6 4 4 3 2 1 2 3 5 6 6 7 5 5 6 7 7 8 8 6 6 9 9 7 9 11 10 9 9 10 9 8 8 10 11 12 14 16 15 13 14 15 14 14
20 20 20 18 16 14 11 9 8 7 6 8 12 14 14 14 13 11 8 7 6 5 5 4 3 2 2 3 4 4 4 3 4 7 8 7 7 7 7 6 5 3 2 7 9 9 10 10 11 11 10 9 11 13 13 11 12 11 10 11 12 11 11
20 20 20 19 18 16 15 12 10 9 9 10 12 14 15 14 15 13 11 9 8 8 8 7 6 4 3 3 3 3 3 3 4 6 8 8 7 5 4 3 0 2 4 5 6 8 10 10 11 12 11 9 9 10 10 10 9 8 7 8 9 10 9
19 18 18 19 18 18 18 17 16 16 15 14 14 15 15 15 14 13 12 11 11 11 10 9 8 7 6 6 5 4 4 6 7 6 6 9 10 6 2 1 1 2 1 3 5 7 8 9 9 10 10 9 9 9 10 10 9 8 8 7 7 7 7
20 19 17 17 18 18 18 17 16 16 15 15 14 14 15 14 13 13 14 13 13 12 12 10 9 8 7 7 7 7 7 8 8 7 8 11 13 8 4 1 2 3 4 5 6 7 8 9 9 9 9 9 10 11 12 12 10 8 8 7 6 8 8
20 19 18 17 17 17 16 15 14 14 13 13 13 13 13 13 14 14 14 14 13 13 12 11 9 8 8 8 8 8 8 8 8 7 8 10 10 7 4 5 7 8 9 11 11 11 11 11 11 11 10 10 10 11 13 13 11 10 9 9 9 11 10
18 18 18 17 17 17 16 16 16 15 13 12 11 11 12 13 14 13 11 11 11 10 10 10 10 10 10 9 8 8 8 8 7 6 6 7 8 8 9 9 11 12 13 14 14 14 14 14 13 13 13 12 12 11 11 11 12 12 13 14 14 13 13
Wind_Direction
164 167 159 165 166 165 168 165 165 173 179 191 194 185 179 185 188 182 181 183 177 174 177 176 178 176 168 167 170 170 162 162 174 162 157 170 160 155 151 122 101 118 132 125 121 136 136 118 115 113 120 122 117 118 120 120 122 122 119 115 118 122 126
158 158 158 165 162 162 168 167 171 175 172 183 192 183 180 187 189 178 176 177 169 167 172 169 172 175 166 156 153 162 166 170 179 169 160 154 144 155 151 127 122 129 130 120 116 120 119 128 139 132 138 131 119 121 125 123 125 123 116 115 114 114 119
151 151 153 157 159 165 170 170 172 168 169 185 191 183 179 183 180 166 161 163 158 158 163 157 157 163 158 157 162 165 168 171 174 170 159 137 130 144 144 141 146 143 134 125 122 123 123 133 139 142 154 151 130 126 130 128 129 127 120 120 121 120 123
153 154 154 155 161 170 172 168 160 164 182 194 183 173 171 170 166 159 153 149 148 149 150 144 144 148 145 154 166 165 168 170 169 168 158 151 143 135 137 152 162 154 141 137 146 151 150 142 131 139 155 151 134 130 136 130 127 128 124 124 125 120 119
157 157 157 161 167 169 167 165 163 174 187 183 168 162 163 160 155 154 149 144 145 144 144 148 154 155 150 151 155 161 168 165 168 170 163 161 157 144 143 148 155 156 144 141 154 162 159 147 135 139 154 148 132 131 138 134 130 130 126 124 123 120 118
160 162 161 164 167 166 166 168 171 175 173 165 161 158 155 153 148 147 145 143 146 140 140 151 152 139 140 146 155 166 173 169 170 171 167 164 157 153 151 145 150 159 148 147 161 162 162 159 148 144 152 150 138 134 136 134 132 131 130 130 126 122 122
165 165 164 165 166 165 166 169 167 165 163 162 164 158 152 151 144 142 140 139 143 140 136 139 127 126 135 142 151 161 169 168 164 163 166 165 159 159 153 145 154 162 153 154 161 158 162 173 169 149 144 147 143 136 133 134 135 130 130 132 127 124 127
169 166 166 165 164 163 164 166 163 160 161 163 161 155 151 149 143 142 140 136 139 141 135 131 130 139 140 138 144 150 151 149 147 149 151 151 157 161 156 152 155 154 151 154 156 153 155 172 176 155 144 145 145 135 135 140 140 133 129 130 131 134 137
173 169 166 162 162 165 162 158 155 153 154 153 150 148 146 144 144 144 141 137 135 135 138 136 135 138 130 127 133 133 133 135 133 131 130 133 143 145 148 153 149 145 144 144 147 148 158 173 175 158 151 154 150 137 143 147 139 138 140 140 141 143 141
172 165 162 162 165 161 152 147 146 145 145 143 142 143 144 146 148 145 140 137 134 133 137 137 135 135 127 121 126 127 128 129 124 121 123 129 132 136 143 147 145 143 141 146 148 138 151 163 160 154 158 161 157 151 145 139 134 142 151 153 145 140 144
163 158 158 161 155 145 139 139 139 137 137 139 142 146 148 146 144 141 137 134 136 138 138 136 137 137 132 129 130 130 128 126 122 120 123 125 126 137 146 147 150 148 148 158 153 138 146 154 155 162 164 160 159 156 140 128 140 155 163 163 146 139 146
155 155 155 150 141 135 134 134 136 136 139 145 148 149 150 145 139 140 139 137 138 140 138 137 138 136 134 133 129 128 131 132 126 123 127 130 127 134 147 156 160 155 151 151 146 147 156 155 160 173 167 160 161 156 149 146 148 165 168 159 145 145 149
148 153 152 145 139 137 138 139 144 147 148 151 154 153 149 145 144 142 141 143 142 141 140 139 139 134 132 133 133 132 135 136 132 130 140 146 134 134 148 157 158 153 149 147 147 154 159 159 171 179 166 164 164 161 163 160 140 134 146 142 142 149 151
148 154 151 148 147 147 147 147 149 151 152 155 158 156 149 146 148 146 145 148 146 145 145 143 140 136 136 139 136 132 136 145 138 134 144 144 131 132 144 151 157 156 151 149 151 158 165 172 180 167 149 154 160 168 177 162 134 116 125 137 146 151 154
148 156 157 156 157 154 151 151 152 152 153 155 160 157 149 147 149 148 148 149 149 150 150 146 143 140 140 131 118 126 148 140 121 121 136 132 121 129 138 144 155 153 150 153 155 159 168 168 160 151 147 149 159 178 186 156 139 130 131 144 153 153 161
151 161 168 166 163 153 147 148 150 151 149 153 160 155 147 148 149 148 147 144 148 153 151 149 148 144 137 122 121 137 137 107 110 125 151 134 120 126 132 137 147 146 148 159 163 159 167 179 166 151 144 141 142 135 141 147 148 145 144 158 166 159 169
158 168 175 171 161 149 147 148 149 150 149 152 156 150 146 149 147 146 146 142 146 153 152 152 150 142 137 134 139 141 112 113 127 149 147 136 126 120 124 128 134 141 150 163 166 157 173 222 203 141 122 113 112 51 84 143 152 156 160 172 179 169 174
161 171 176 168 158 152 153 153 150 151 152 152 152 148 148 151 148 147 149 145 146 150 151 151 149 142 140 143 147 138 127 134 139 91 96 116 121 122 130 131 133 143 155 164 169 167 184 231 117 128 138 172 187 175 148 166 161 164 169 176 187 183 178
159 167 170 162 158 159 158 155 152 151 152 152 152 151 150 152 151 150 151 150 147 149 150 151 149 144 144 148 148 142 140 139 120 97 92 99 110 122 133 133 136 148 154 158 169 174 182 189 121 121 155 178 195 193 192 243 250 170 173 177 187 190 176
159 164 167 160 159 159 156 154 153 150 150 151 153 154 152 152 154 155 156 153 147 148 150 150 149 148 148 150 147 141 140 132 122 121 115 111 112 115 125 130 137 149 152 158 175 178 155 169 147 87 205 338 171 175 178 214 249 224 200 188 188 191 179
155 156 159 159 158 155 153 154 153 151 150 146 147 149 146 149 158 157 153 152 148 148 149 147 151 153 149 147 144 139 137 132 129 129 117 119 126 120 121 129 135 143 142 142 153 156 145 142 101 91 167 352 58 129 170 196 211 234 261 239 203 198 191
146 146 150 155 158 157 156 156 151 149 146 142 145 146 142 148 155 149 147 149 144 140 137 138 148 154 149 145 146 145 144 140 137 142 131 125 133 131 132 141 144 145 146 141 144 154 155 155 125 101 134 245 69 49 26 31 3 298 288 292 269 230 216
132 135 139 144 148 152 155 155 151 150 145 140 144 144 144 151 154 145 141 137 128 121 118 122 130 140 143 144 145 149 156 157 149 157 169 153 155 169 170 177 189 193 192 184 184 195 202 215 235 237 244 251 245 291 315 340 359 350 330 310 292 282 283
123 124 127 130 132 136 140 138 137 139 136 136 142 145 147 153 153 139 123 112 107 106 107 110 117 128 137 142 144 141 144 170 183 181 200 206 198 215 216 193 205 215 217 216 214 216 221 230 243 248 249 257 265 275 284 296 306 317 332 331 296 279 272
126 125 128 133 131 129 127 119 115 120 122 124 130 135 136 137 136 133 127 115 105 105 104 98 116 132 135 138 144 138 118 80 305 211 221 241 308 314 303 284 279 276 245 217 211 219 237 238 239 256 264 263 267 271 273 279 283 287 298 306 293 278 264
129 131 134 134 130 129 127 119 112 112 113 113 115 119 121 122 120 119 119 115 109 111 109 97 119 148 149 146 156 167 126 17 16 5 295 276 319 331 319 285 277 289 297 279 239 217 230 243 238 250 269 280 283 283 280 279 278 277 277 278 277 274 267
125 133 138 133 129 129 128 121 114 111 110 110 110 111 113 116 114 110 112 113 110 110 108 104 106 149 184 202 248 266 280 306 338 352 339 313 284 296 306 287 270 285 310 306 286 250 234 244 249 253 261 277 288 290 293 291 286 280 274 270 271 271 270
124 129 137 138 136 129 122 118 114 112 112 113 111 112 120 123 120 113 115 122 123 120 118 117 119 150 220 248 271 279 283 290 298 315 334 340 328 320 318 313 314 348 339 313 293 284 280 263 256 264 269 276 280 280 283 283 282 283 279 271 267 266 265
120 126 130 133 138 134 126 124 119 112 108 109 110 116 124 124 122 123 132 142 145 144 141 138 156 218 252 268 284 293 293 291 294 305 323 338 341 339 334 330 330 330 326 314 295 288 287 268 258 267 274 281 284 284 284 283 282 283 280 269 263 263 262
92 105 113 117 124 135 143 140 128 116 113 120 122 118 117 117 121 133 147 147 141 137 124 110 222 263 274 278 285 291 292 291 300 314 321 325 327 325 322 330 336 327 313 304 289 277 269 260 263 271 279 283 285 288 291 289 286 285 279 266 261 266 270
75 80 85 93 103 120 139 144 138 135 136 138 128 116 115 118 121 131 139 129 119 116 100 76 339 302 297 288 284 287 290 300 329 341 332 330 336 334 327 336 349 345 314 276 267 268 271 271 269 272 280 283 285 292 295 293 289 285 278 272 271 275 282
72 73 75 79 84 93 107 123 141 150 143 131 119 108 106 110 110 113 117 111 104 98 88 75 48 17 350 321 314 320 324 339 16 19 14 13 7 356 355 356 352 345 245 235 251 266 275 274 269 269 275 282 283 285 285 283 286 289 287 285 290 294 296
69 72 75 79 80 81 84 91 106 112 111 116 114 105 105 111 112 111 110 105 96 87 81 74 61 48 30 9 2 3 5 11 22 31 34 27 8 355 4 13 319 195 205 236 264 280 283 282 280 275 272 273 274 274 275 275 274 280 288 292 300 305 309
65 67 72 76 77 76 78 84 92 94 96 104 107 103 102 105 106 102 95 90 84 76 73 70 65 60 51 43 41 33 24 19 15 21 34 27 19 28 66 108 157 152 223 278 291 301 301 298 295 288 276 265 257 253 261 270 270 272 280 285 286 288 294
62 64 68 71 71 71 72 78 88 93 94 96 99 100 98 96 95 90 83 79 77 71 66 60 55 54 51 50 51 43 38 34 23 21 37 37 34 48 76 15 345 346 329 321 319 317 314 311 307 304 294 277 265 258 260 263 265 269 276 275 265 261 262
57 59 62 64 65 65 64 67 77 85 91 96 103 110 112 107 100 91 84 79 71 62 55 46 37 32 31 31 31 29 28 28 22 23 39 40 30 23 6 338 329 324 321 323 324 320 316 313 306 302 299 291 281 272 266 263 259 254 250 244 243 249 246
56 58 59 60 60 59 59 61 64 67 74 82 93 107 121 123 115 107 105 98 79 57 47 38 28 23 19 12 7 5 3 2 4 7 15 17 2 345 335 327 322 323 323 323 323 320 314 308 304 302 301 299 295 288 276 269 264 256 249 244 244 247 242